This is the latest recevied weather packets stored in our database for station/object N3FWE. If no packets are shown the sender has not sent any weather packets the latest 10 day(s).
| Time | Temp. | Humidity | Pressure | Rain* | Wind** | Luminosity | Snow |
|---|---|---|---|---|---|---|---|
| 1777310410 | 20° C | 48% | 1024.2 hPa | 0 mm | - | - | - |
| 1777309809 | 20° C | 48% | 1024.4 hPa | 0 mm | - | - | - |
| 1777309209 | 20° C | 47% | 1024.5 hPa | 0 mm | - | - | - |
| 1777308610 | 20° C | 49% | 1024.7 hPa | 0 mm | - | - | - |
| 1777308010 | 20° C | 51% | 1024.7 hPa | 0 mm | - | - | - |
| 1777307411 | 19.44° C | 46% | 1024.8 hPa | 0 mm | - | - | - |
| 1777306810 | 19.44° C | 49% | 1024.9 hPa | 0 mm | - | - | - |
| 1777306210 | 19.44° C | 47% | 1024.9 hPa | 0 mm | - | - | - |
| 1777305611 | 18.89° C | 49% | 1025 hPa | 0 mm | - | - | - |
| 1777305011 | 19.44° C | 52% | 1025 hPa | 0 mm | - | - | - |
| 1777304411 | 20° C | 53% | 1025.1 hPa | 0 mm | - | - | - |
| 1777303811 | 19.44° C | 52% | 1025.2 hPa | 0 mm | - | - | - |
| 1777303210 | 19.44° C | 54% | 1025.2 hPa | 0 mm | - | - | - |
| 1777302611 | 19.44° C | 57% | 1025.3 hPa | 0 mm | - | - | - |
| 1777302011 | 18.89° C | 58% | 1025.2 hPa | 0 mm | - | - | - |
| 1777301410 | 17.78° C | 59% | 1025.2 hPa | 0 mm | - | - | - |
| 1777300810 | 16.67° C | 59% | 1025.3 hPa | 0 mm | - | - | - |
| 1777300211 | 16.67° C | 61% | 1025.5 hPa | 0 mm | - | - | - |
| 1777299610 | 16.11° C | 65% | 1025.6 hPa | 0 mm | - | - | - |
| 1777299011 | 15.56° C | 62% | 1025.7 hPa | 0 mm | - | - | - |
| 1777298410 | 15.56° C | 66% | 1025.7 hPa | 0 mm | - | - | - |
| 1777297811 | 15.56° C | 67% | 1025.6 hPa | 0 mm | - | - | - |
| 1777297211 | 14.44° C | 70% | 1025.6 hPa | 0 mm | - | - | - |
| 1777296610 | 13.33° C | 77% | 1025.4 hPa | 0 mm | - | - | - |
| 1777296010 | 12.22° C | 82% | 1025.4 hPa | 0 mm | - | - | - |
* Rain latest hour (hover to see other rain measurements)
** Current wind speed in m/s (hover to see current wind gust speed)